Location: Alpine
(43.1636°N, 111.0180°W)
Time: 05:17:45
(UTC+00:00)

Tiros 1 despin weight - Pass Details

Date: 29 May 2022
Orbit: 591 x 639 km, 48.2° (Epoch: 30 June)

Event Time Altitude Azimuth Distance (km) Brightness Sun altitude
Rises 07:13:02 0° 287° (WNW) 2,832 ? -25.2°
Enters shadow 07:15:44 10° 271° (W) 1,945 ? -25.2°
Reaches altitude 10° 07:15:49 10° 270° (W) 1,922 - -25.2°
Maximum altitude 07:19:00 20° 224° (SW) 1,393 - -25.2°
Drops below altitude 10° 07:22:10 10° 177° (S) 1,908 - -25.2°
Sets 07:24:55 0° 160° (SSE) 2,806 - -25.2°
